Weather History for Moncks Corner, SC

Change the Weather History Date:

Monday, February 17, 2014

  Actual Average (KCHS) Record (KCHS)
Temperature  
Mean Temperature 48 °F 52 °F  
Max Temperature 62 °F 63 °F 79 °F (1976)
Min Temperature 35 °F 41 °F 15 °F (1958)
Degree Days  
Heating Degree Days 16 13  
Month to date heating degree days 246  
Since 1 July heating degree days 1505  
Cooling Degree Days 0 0  
Month to date cooling degree days 0  
Year to date cooling degree days 2  
Moisture  
Dew Point 40 °F    
Average Humidity 78    
Maximum Humidity 100    
Minimum Humidity 48    
Precipitation  
Precipitation 0.00 in 0.10 in 2.93 in (1998)
Month to date precipitation 1.80  
Year to date precipitation 5.51  
Sea Level Pressure  
Sea Level Pressure 30.23 in    
Wind  
Wind Speed 4 mph (East)    
Max Wind Speed 14 mph    
Max Gust Speed 17 mph    
Visibility 8 miles    
Events      
T = Trace of Precipitation, MM = Missing Value Source: NWS Daily Summary

Daily Weather History Graph

Daily Weather History Graph

Search for Another Location

Airport:

Trip Planner

Search our weather history database for the weather conditions in past years. The results will help you decide how hot, cold, wet, or windy it might be!

Date:

Astronomy

Feb. 17, 2014 Rise Set
Actual Time 7:01 AM EST 6:06 PM EST
Civil Twilight 6:36 AM EST 6:32 PM EST
Nautical Twilight 6:07 AM EST 7:01 PM EST
Astronomical Twilight 5:38 AM EST 7:29 PM EST
Moon 8:48 PM EST (2/17) 8:11 AM EST (2/17)
Length of Visible Light 11h 55m
Length of Day
11h 05m
Waning Gibbous, 93% of the Moon is Illuminated
Feb 17
Waning Gibbous
Feb 22
Last Quarter
Mar 1
New
Mar 8
First Quarter
Mar 16
Full

Hourly Weather History & Observations

Time (EST) Temp. Windchill Dew Point Humidity Pressure Visibility Wind Dir Wind Speed Gust Speed Precip Events Conditions
12:15 AM 41.0 °F - 37.4 °F 87% 30.16 in 10.0 mi Calm Calm - N/A   Clear
12:35 AM 39.2 °F - 37.4 °F 93% 30.16 in 10.0 mi Calm Calm - N/A   Clear
12:55 AM 39.2 °F - 37.4 °F 93% 30.16 in 7.0 mi Calm Calm - N/A   Clear
1:15 AM 39.2 °F - 37.4 °F 93% 30.15 in 10.0 mi Calm Calm - N/A   Clear
1:35 AM 39.2 °F - 39.2 °F 100% 30.16 in 7.0 mi Calm Calm - N/A   Clear
1:55 AM 39.2 °F - 37.4 °F 93% 30.16 in 7.0 mi Calm Calm - N/A   Clear
2:15 AM 39.2 °F - 37.4 °F 93% 30.17 in 7.0 mi Calm Calm - N/A   Clear
2:35 AM 39.2 °F - 37.4 °F 93% 30.17 in 7.0 mi Calm Calm - N/A   Clear
2:55 AM 39.2 °F - 39.2 °F 100% 30.17 in 7.0 mi Calm Calm - N/A   Clear
3:15 AM 39.2 °F - 37.4 °F 93% 30.16 in 10.0 mi Calm Calm - N/A   Clear
3:35 AM 41.0 °F 39.0 °F 39.2 °F 93% 30.17 in 10.0 mi WSW 3.5 mph - N/A   Clear
3:55 AM 42.8 °F - 39.2 °F 87% 30.17 in 7.0 mi Calm Calm - N/A   Clear
4:15 AM 42.8 °F - 39.2 °F 87% 30.18 in 10.0 mi Calm Calm - N/A   Clear
4:35 AM 42.8 °F - 39.2 °F 87% 30.18 in 10.0 mi Calm Calm - N/A   Clear
4:55 AM 41.0 °F - 37.4 °F 87% 30.18 in 7.0 mi Calm Calm - N/A   Clear
5:15 AM 39.2 °F - 37.4 °F 93% 30.20 in 10.0 mi Calm Calm - N/A   Clear
5:35 AM 37.4 °F - 37.4 °F 100% 30.20 in 10.0 mi Calm Calm - N/A   Clear
5:55 AM 37.4 °F - 37.4 °F 100% 30.21 in 10.0 mi Calm Calm - N/A   Clear
6:15 AM 37.4 °F - 37.4 °F 100% 30.21 in 7.0 mi Calm Calm - N/A   Clear
6:35 AM 37.4 °F - 37.4 °F 100% 30.22 in 7.0 mi Calm Calm - N/A   Clear
6:55 AM 35.6 °F - 35.6 °F 100% 30.23 in 7.0 mi Calm Calm - N/A   Clear
7:15 AM 37.4 °F 32.8 °F 37.4 °F 100% 30.24 in 7.0 mi NNE 5.8 mph - N/A   Clear
7:35 AM 42.8 °F 37.5 °F 37.4 °F 81% 30.25 in 5.0 mi NE 9.2 mph - N/A   Haze
7:55 AM 41.0 °F 34.7 °F 37.4 °F 87% 30.26 in 7.0 mi ENE 10.4 mph - N/A   Clear
8:15 AM 41.0 °F 35.2 °F 35.6 °F 81% 30.27 in 4.0 mi ENE 9.2 mph - N/A   Clear
8:35 AM 42.8 °F 35.8 °F 35.6 °F 76% 30.28 in 10.0 mi ENE 13.8 mph 17.3 mph N/A   Clear
8:55 AM 44.6 °F 38.1 °F 35.6 °F 71% 30.29 in 7.0 mi NE 13.8 mph - N/A   Clear
9:15 AM 44.6 °F 39.2 °F 35.6 °F 71% 30.30 in 7.0 mi ENE 10.4 mph 17.3 mph N/A   Clear
9:35 AM 46.4 °F 40.4 °F 35.6 °F 66% 30.30 in 7.0 mi ENE 13.8 mph 17.3 mph N/A   Clear
9:55 AM 48.2 °F - 33.8 °F 58% 30.30 in 7.0 mi NE 10.4 mph - N/A   Clear
10:15 AM 50.0 °F - 35.6 °F 58% 30.30 in 10.0 mi NE 9.2 mph - N/A   Clear
10:35 AM 51.8 °F - 35.6 °F 54% 30.31 in 10.0 mi ENE 9.2 mph - N/A   Clear
10:55 AM 51.8 °F - 35.6 °F 54% 30.30 in 7.0 mi East 8.1 mph - N/A   Clear
11:15 AM 53.6 °F - 35.6 °F 51% 30.30 in 7.0 mi ENE 11.5 mph - N/A   Clear
11:35 AM 55.4 °F - 37.4 °F 51% 30.30 in 7.0 mi East 8.1 mph - N/A   Clear
11:55 AM 57.2 °F - 37.4 °F 48% 30.29 in 10.0 mi ENE 6.9 mph - N/A   Clear
12:15 PM 57.2 °F - 39.2 °F 51% 30.29 in 10.0 mi East 8.1 mph - N/A   Clear
12:35 PM 59.0 °F - 39.2 °F 48% 30.28 in 7.0 mi East 8.1 mph - N/A   Clear
12:55 PM 59.0 °F - 39.2 °F 48% 30.27 in 7.0 mi NE 9.2 mph - N/A   Clear
1:15 PM 59.0 °F - 39.2 °F 48% 30.26 in 10.0 mi ESE 6.9 mph - N/A   Clear
1:35 PM 59.0 °F - 39.2 °F 48% 30.26 in 10.0 mi East 6.9 mph - N/A   Clear
1:55 PM 60.8 °F - 41.0 °F 48% 30.26 in 10.0 mi East 5.8 mph - N/A   Clear
2:15 PM 60.8 °F - 41.0 °F 48% 30.24 in 10.0 mi East 4.6 mph - N/A   Clear
2:35 PM 60.8 °F - 42.8 °F 52% 30.24 in 10.0 mi East 9.2 mph - N/A   Clear
2:55 PM 62.6 °F - 42.8 °F 48% 30.24 in 10.0 mi ESE 4.6 mph - N/A   Clear
3:15 PM 62.6 °F - 44.6 °F 52% 30.23 in 7.0 mi East 8.1 mph - N/A   Clear
3:35 PM 60.8 °F - 44.6 °F 55% 30.23 in 7.0 mi East 8.1 mph - N/A   Clear
3:55 PM 60.8 °F - 46.4 °F 59% 30.22 in 10.0 mi ESE 5.8 mph - N/A   Clear
4:15 PM 60.8 °F - 46.4 °F 59% 30.22 in 7.0 mi ESE 10.4 mph - N/A   Clear
4:35 PM 59.0 °F - 46.4 °F 63% 30.22 in 7.0 mi ESE 8.1 mph - N/A   Clear
4:55 PM 57.2 °F - 44.6 °F 63% 30.23 in 7.0 mi East 8.1 mph - N/A   Clear
5:15 PM 57.2 °F - 44.6 °F 63% 30.22 in 7.0 mi ESE 8.1 mph - N/A   Clear
5:35 PM 55.4 °F - 44.6 °F 67% 30.22 in 7.0 mi ESE 9.2 mph - N/A   Clear
5:55 PM 53.6 °F - 44.6 °F 72% 30.23 in 7.0 mi ESE 5.8 mph - N/A   Clear
6:15 PM 51.8 °F - 46.4 °F 82% 30.23 in 7.0 mi East 4.6 mph - N/A   Scattered Clouds
6:35 PM 50.0 °F - 46.4 °F 87% 30.23 in 7.0 mi East 5.8 mph - N/A   Mostly Cloudy
6:55 PM 50.0 °F - 46.4 °F 87% 30.24 in 7.0 mi ESE 4.6 mph - N/A   Overcast
7:15 PM 50.0 °F - 44.6 °F 82% 30.24 in 7.0 mi East 9.2 mph - N/A   Overcast
7:35 PM 48.2 °F - 44.6 °F 87% 30.24 in 7.0 mi East 6.9 mph - N/A   Overcast
7:55 PM 48.2 °F - 44.6 °F 87% 30.24 in 7.0 mi East 4.6 mph - N/A   Overcast
8:15 PM 48.2 °F - 44.6 °F 87% 30.23 in 7.0 mi East 8.1 mph - N/A   Overcast
8:35 PM 46.4 °F 43.5 °F 44.6 °F 93% 30.23 in 7.0 mi East 5.8 mph - N/A   Overcast
8:55 PM 46.4 °F 45.2 °F 44.6 °F 93% 30.24 in 7.0 mi East 3.5 mph - N/A   Overcast
9:15 PM 46.4 °F 43.5 °F 44.6 °F 93% 30.24 in 7.0 mi East 5.8 mph - N/A   Overcast
9:35 PM 46.4 °F 43.5 °F 42.8 °F 87% 30.25 in 7.0 mi ENE 5.8 mph - N/A   Mostly Cloudy
9:55 PM 46.4 °F 44.3 °F 42.8 °F 87% 30.26 in 7.0 mi NE 4.6 mph - N/A   Mostly Cloudy
10:15 PM 44.6 °F 42.2 °F 42.8 °F 93% 30.25 in 5.0 mi ENE 4.6 mph - N/A   Overcast
10:35 PM 44.6 °F 42.2 °F 42.8 °F 93% 30.25 in 7.0 mi ENE 4.6 mph - N/A   Overcast
10:55 PM 46.4 °F 45.2 °F 44.6 °F 93% 30.25 in 7.0 mi East 3.5 mph - N/A   Overcast
11:15 PM 46.4 °F 45.2 °F 44.6 °F 93% 30.24 in 5.0 mi East 3.5 mph - N/A   Overcast
11:35 PM 46.4 °F 44.3 °F 44.6 °F 93% 30.22 in 7.0 mi ESE 4.6 mph - N/A   Overcast
11:55 PM 46.4 °F 41.9 °F 44.6 °F 93% 30.19 in 7.0 mi SE 9.2 mph - N/A   Overcast